• Currently

    Reported at Minneapolis, Minneapolis-St. Paul International Airport, MN
    4:10 AM CST TUE SEP 19 2017
  • 61°F16°C
  • Overcast
    Overcast
  • Feels Like:61°F16°CDew Point:57°F14°CHumidity:88% Winds:SE 8 mph 13 kph
    Pressure:29.91 in1013 hPaVisibility:10.00 miles16090.00 meters
Time Weather Temp Dew Point
Humidity Winds Visibility Pressure Precipitation
1 hr 24 hr
Wednesday, September 13
23:53 23:53 Clear Clear 73°F23°C 67°F19°C 81% S 7 mphS 11 kph 10.0 miles16.1 km 29.8 in1009 hPa 0.00 in0.00 mm --
22:53 22:53 Clear Clear 73°F23°C 67°F19°C 81% SSE 7 mphSSE 11 kph 10.0 miles16.1 km 29.83 in1010 hPa 0.00 in0.00 mm --
21:53 21:53 Clear Clear 74°F23°C 67°F19°C 79% SSE 7 mphSSE 11 kph 10.0 miles16.1 km 29.83 in1010 hPa 0.00 in0.00 mm --
20:53 20:53 Clear Clear 76°F24°C 67°F19°C 74% SSE 6 mphSSE 9 kph 10.0 miles16.1 km 29.83 in1010 hPa 0.00 in0.00 mm --
19:53 19:53 Clear Clear 80°F27°C 67°F19°C 64% S 3 mphS 6 kph 10.0 miles16.1 km 29.83 in1010 hPa 0.00 in0.00 mm --
18:53 18:53 Sunny Sunny 82°F28°C 66°F19°C 58% S 7 mphS 11 kph 10.0 miles16.1 km 29.85 in1011 hPa 0.00 in0.00 mm --
17:53 17:53 Sunny Sunny 84°F29°C 66°F19°C 55% S 9 mphS 15 kph 10.0 miles16.1 km 29.85 in1011 hPa 0.00 in0.00 mm --
16:53 16:53 Sunny Sunny 84°F29°C 66°F19°C 55% S 8 mphS 13 kph 10.0 miles16.1 km 29.88 in1012 hPa 0.00 in0.00 mm --
15:53 15:53 Sunny Sunny 84°F29°C 66°F19°C 55% SSE 9 mphSSE 15 kph 10.0 miles16.1 km 29.91 in1013 hPa 0.00 in0.00 mm --
14:53 14:53 Sunny Sunny 83°F28°C 66°F19°C 57% S 6 mphS 9 kph 10.0 miles16.1 km 29.91 in1013 hPa 0.00 in0.00 mm --
13:53 13:53 Sunny Sunny 82°F28°C 66°F19°C 58% S 6 mphS 9 kph 10.0 miles16.1 km 29.94 in1014 hPa 0.00 in0.00 mm --
12:53 12:53 Sunny Sunny 80°F27°C 66°F19°C 62% SSE 5 mphSSE 7 kph 10.0 miles16.1 km 29.97 in1015 hPa 0.00 in0.00 mm --
11:53 11:53 Sunny Sunny 78°F26°C 66°F19°C 67% N 3 mphN 6 kph 10.0 miles16.1 km 30 in1016 hPa 0.00 in0.00 mm --
10:53 10:53 Sunny Sunny 75°F24°C 67°F19°C 76% S 8 mphS 13 kph 10.0 miles16.1 km 30 in1016 hPa 0.00 in0.00 mm --
09:53 09:53 Sunny Sunny 70°F21°C 65°F18°C 84% SE 5 mphSE 7 kph 8.0 miles12.9 km 30 in1016 hPa 0.00 in0.00 mm --
08:53 08:53 Sunny With Mist And Fog Sunny With Mist And Fog 66°F19°C 64°F18°C 93% CalmCalm 6.0 miles9.7 km 30.03 in1017 hPa 0.00 in0.00 mm --
07:53 07:53 Partly Cloudy With Mist And Fog Partly Cloudy With Mist And Fog 64°F18°C 63°F17°C 96% ESE 6 mphESE 9 kph 4.0 miles6.4 km 30.03 in1017 hPa 0.00 in0.00 mm --
06:53 06:53 Sunny With Mist And Fog Sunny With Mist And Fog 63°F17°C 63°F17°C 100% SE 3 mphSE 6 kph 4.0 miles6.4 km 30.03 in1017 hPa 0.00 in0.00 mm --
05:53 05:53 Clear With Mist And Fog Clear With Mist And Fog 64°F18°C 63°F17°C 96% E 3 mphE 6 kph 5.0 miles8.0 km 30.03 in1017 hPa 0.00 in0.00 mm --
04:53 04:53 Clear With Mist And Fog Clear With Mist And Fog 65°F18°C 64°F18°C 97% CalmCalm 5.0 miles8.0 km 30.03 in1017 hPa 0.00 in0.00 mm --
03:53 03:53 Clear With Mist And Fog Clear With Mist And Fog 65°F18°C 63°F17°C 93% E 5 mphE 7 kph 6.0 miles9.7 km 30.03 in1017 hPa 0.00 in0.00 mm --
02:53 02:53 Clear With Mist And Fog Clear With Mist And Fog 65°F18°C 64°F18°C 97% CalmCalm 5.0 miles8.0 km 30.03 in1017 hPa 0.00 in0.00 mm --
01:53 01:53 Clear Clear 67°F19°C 64°F18°C 91% CalmCalm 7.0 miles11.3 km 30.06 in1018 hPa 0.00 in0.00 mm --
00:53 00:53 Clear Clear 65°F18°C 64°F18°C 97% CalmCalm 7.0 miles11.3 km 30.06 in1018 hPa 0.00 in0.00 mm --